COSMOS 2251 DEB, 34750

Orbit data source: Space-Track

COSMOS 2251 DEB, 34750 is space debris in LEO originally from a launch on Wed, 16 Jun 1993 UTC launched from the Plesetsk Missile And Space Complex (PKMTR). The debris from Iridium 33, an American commercial communications satellite, has been tracked extensively since its accidental collision with the defunct Russian satellite Cosmos 2251 in 2009. This event, occurring at high speed in low Earth orbit (LEO), generated thousands of pieces of space debris, significantly increasing the risk of further collisions. The Iridium 33 debris cloud has impacted space traffic management and orbital debris mitigation strategies, making it a subject of ongoing study in space situational awareness.

Loading next visibility...
Identifier
34750, 1993-036ZU
Orbit
LEO
Country
Flag of CISCIS
Related business
Manufacturer
Unknown
Mission
Spacecraft
Bus & Motor
Unknown
Mass
Unknown
Launch date (UTC)
1993-06-16 (32 years ago)
Launch vehicle
Unknown
Launch site
Plesetsk Missile And Space Complex (PKMTR)
Object type
Payload
Rocket body
Debris
Shape & HBR
Unknown shape, 0.1 m
Radar Cross Section
Small (<0.1 m²)

Expand to show TLE details & history
Last TLE update: 19 hours ago

TLE from 19 hours ago
0 COSMOS 2251 DEB
1 34750U 93036ZU  25292.46292443  .00012975  00000-0  26471-2 0  9990
2 34750  74.1081 305.0158 0041688 273.6085 237.3650 14.60427976874384
Epoch: 2025-10-19T11:06Z
TLE epoch observation values (Epoch: 2025-10-19T11:06:36.670Z)
Latitude
28.25053°
Longitude
-78.56834°
Altitude
710.969 km
Speed
7.494 km/s
True Right ascension
07h 45m 03s
True Declination
28° 06' 23"
Sunlit
Object was in daylight at epoch
Visualization orbit readout
Latitude
Unknown
Longitude
Unknown
Altitude
Unknown
Speed
Unknown
Apparent Right ascension
Unknown
Apparent Declination
Unknown
Sunlit
N/A
Visualization observer readout
Local Sidereal Time
00:58:56
Azimuth
Unknown
Elevation
Unknown
Doppler factor
Unknown
Orbital elements
Apogee altitude
718.846 km
Perigee altitude
659.92 km
Semi-major axis
7,067.52 km
Eccentricity
0.00417
Inclination
74.1081°
RAAN
305.0158°
Arg. of periapsis
273.6085°
True anomaly
236.96384°
Mean anomaly
237.365°
Eccentric anomaly
237.16431°
Mean motion
3.65294 °/min
Orbital period
98.55 mins
BSTAR
0.0026471

Documentation

Showing up to 5 results
|